Location: Nairn
(57.5833°N, 3.8667°W)
Time: 04:18:32
(UTC+00:00)

Explorer 7 - Pass Details

Date: 29 November 2020
Orbit: 484 x 678 km, 50.3° (Epoch: 17 January)

Event Time Altitude Azimuth Distance (km) Brightness Sun altitude
Exits shadow 04:42:32 23° 137° (SE) 1,219 8.9 -28.9°
Drops below altitude 10° 04:44:30 10° 116° (ESE) 1,808 10.2 -28.6°
Sets 04:46:49 0° 105° (ESE) 2,667 11.4 -28.3°
